Helicity
-39 -40 -30 22 35 65 71 76 58 46 53 42 36 54 78 89 82 57 34 32 23 10 20 32 37 55 34 23 40 44 42 39 46 40 39 34 34 32 24 16 8 29 13
24 -32 -56 -18 51 60 71 70 57 55 61 43 39 59 63 67 56 51 30 25 23 31 25 17 17 20 33 51 48 42 38 43 39 34 46 53 53 41 36 19 53 25 15
34 -13 -58 -22 29 59 79 76 67 60 62 53 32 33 66 37 32 23 22 15 17 21 23 26 16 19 19 20 31 36 41 36 30 42 64 57 59 59 48 24 41 33 23
46 12 -18 -13 51 57 81 79 71 61 54 51 32 33 45 21 22 18 36 29 10 25 28 31 27 32 29 20 26 23 29 33 43 49 53 53 55 55 54 42 29 32 28
33 25 7 13 55 75 71 63 62 55 53 50 35 21 7 4 14 33 51 51 43 41 32 30 34 31 32 33 31 31 41 47 53 56 52 50 50 44 52 42 36 32 37
32 37 30 31 43 65 63 58 51 46 40 39 27 -8 -27 -0 -21 -22 -20 40 48 44 30 27 28 29 36 23 16 13 14 21 42 48 44 42 48 27 22 23 18 25 18
24 31 38 39 34 66 57 48 46 41 29 23 13 -3 -27 -34 -32 -31 -1 30 40 24 12 11 12 16 20 18 11 5 7 29 41 42 40 40 38 20 17 12 1 -0 16
47 29 30 35 49 65 59 49 44 32 16 7 2 -4 -22 -72 -59 -18 7 46 32 13 5 1 4 7 5 5 9 9 18 20 33 43 41 51 32 12 8 3 1 -5 -13
49 49 35 36 49 64 61 62 47 22 4 27 8 -10 -17 -51 -66 -33 16 28 13 3 -5 -8 -7 -0 7 9 13 14 21 24 42 56 62 76 47 28 19 14 9 8 -4
51 52 53 51 59 80 81 66 48 10 -1 45 27 1 -4 -30 -50 -28 1 5 5 3 -1 2 5 4 6 11 13 22 26 19 30 36 47 59 41 31 24 26 18 17 16
59 55 67 72 74 87 90 65 46 8 23 63 39 24 16 -0 -9 -14 -1 9 13 16 16 14 7 15 32 39 49 55 54 40 44 40 45 38 51 59 65 69 52 29 22
63 58 66 63 82 89 84 81 68 57 71 66 50 41 36 38 31 13 19 21 31 34 26 30 45 54 55 52 62 66 45 53 54 58 62 82 77 71 72 79 78 84 83
99 100 89 83 107 114 101 98 95 90 83 76 60 44 54 61 58 53 52 53 54 60 57 71 84 85 69 59 59 54 55 58 54 58 69 108 94 89 80 87 108 172 205
93 113 103 107 133 131 125 105 103 106 93 83 74 61 73 73 74 58 71 78 88 86 105 98 82 81 75 60 63 64 63 60 66 78 108 163 171 150 131 144 221 219 228
81 119 136 159 147 147 143 122 121 111 100 92 92 87 88 97 82 84 95 105 109 100 98 89 80 80 70 67 65 72 86 94 117 121 137 198 210 206 263 238 228 215 231
84 94 171 185 195 192 169 144 120 124 111 105 112 111 114 111 108 128 146 119 118 97 86 77 67 67 57 53 68 83 85 85 115 140 152 165 221 238 233 234 221 217 238
52 76 152 191 252 223 203 160 145 131 138 147 157 162 158 153 146 155 150 129 106 93 79 67 64 62 66 77 76 68 82 109 151 161 160 161 170 208 225 219 216 211 203
81 104 140 189 228 259 234 207 214 211 222 198 196 184 183 157 149 159 139 127 106 88 62 53 59 57 60 58 63 71 76 120 163 156 155 149 142 141 176 205 197 190 190
94 115 144 211 256 297 324 343 304 270 261 252 234 208 188 168 162 166 145 121 99 84 75 58 54 39 27 57 79 81 74 116 164 157 156 139 137 111 107 144 161 136 138
105 110 203 230 305 381 416 374 346 324 315 294 265 247 222 194 163 155 140 120 90 76 77 58 48 30 15 39 54 76 77 104 144 154 150 130 125 94 87 84 68 73 115
145 155 193 249 347 454 427 378 333 297 296 303 283 255 221 194 165 143 114 92 74 48 23 30 16 43 29 38 31 82 87 100 97 134 120 75 114 81 64 77 56 54 71
130 170 216 283 377 437 412 340 300 266 276 286 257 240 201 186 150 136 110 87 49 15 32 34 38 16 10 6 -0 3 54 85 140 93 91 121 93 98 68 83 86 95 94
122 184 240 314 389 417 405 382 369 338 318 283 234 229 203 169 157 138 108 67 49 27 11 9 12 26 24 13 30 12 15 49 76 87 136 111 97 77 57 54 61 71 79
167 198 242 312 374 355 317 292 267 248 223 166 190 185 175 162 155 130 98 78 58 20 27 15 18 15 14 30 32 70 80 99 74 79 100 107 64 58 43 61 46 63 76
184 206 221 279 281 278 236 227 250 234 221 228 202 190 174 167 149 124 111 91 65 40 35 43 45 48 36 38 47 66 95 122 138 166 150 120 66 47 50 47 91 27 45
204 202 211 230 214 197 229 218 231 249 236 213 170 173 158 151 142 140 125 103 85 71 65 55 57 64 69 79 80 87 100 112 124 125 149 106 72 48 86 50 25 47 60
Wind_Speed
18 23 25 26 27 27 28 29 30 32 33 33 31 28 27 26 26 24 26 27 30 34 34 34 36 35 28 25 22 24 28 33 39 44 47 45 39 38 33 29 26 29 34
21 23 23 23 24 25 27 28 29 31 33 34 31 31 31 29 29 27 26 28 30 33 35 33 32 33 32 31 29 29 32 37 39 43 45 43 39 38 36 35 30 32 33
21 22 19 20 21 24 26 27 29 31 32 33 32 30 30 30 28 28 27 28 30 33 36 35 32 32 33 33 33 34 35 39 40 43 44 40 41 41 41 36 30 34 37
20 20 18 19 22 22 25 26 28 31 32 32 32 28 28 28 29 30 28 28 28 32 35 35 34 34 34 34 36 36 38 39 40 42 43 42 43 45 43 37 30 30 36
16 18 18 18 20 21 22 24 27 29 31 32 32 31 28 26 25 26 26 27 28 31 34 35 35 35 36 36 37 37 38 39 40 41 41 41 42 43 44 41 34 36 42
11 14 15 16 17 19 21 23 25 28 30 29 30 30 29 27 24 21 22 24 27 30 32 34 35 36 38 39 39 39 38 38 37 39 41 42 43 42 41 41 41 40 38
6 9 11 14 16 18 19 21 23 26 28 29 28 28 29 31 34 25 20 26 27 30 32 34 36 38 39 40 42 42 43 44 41 41 42 42 42 43 42 41 39 40 34
5 7 8 10 13 15 16 18 21 23 26 30 28 27 27 31 35 35 25 26 28 30 34 36 39 41 42 43 43 44 44 45 45 44 44 44 44 44 44 43 41 41 43
7 5 6 7 8 10 12 15 18 20 22 27 29 26 26 30 33 34 30 30 30 31 34 37 40 41 40 41 41 42 45 45 46 46 46 46 45 45 45 44 43 40 39
12 6 5 5 6 7 8 11 15 17 21 23 27 28 28 29 31 31 30 30 31 33 35 37 40 40 41 44 47 48 49 50 48 49 49 50 53 52 50 51 51 47 42
20 12 11 6 4 5 6 10 12 16 21 23 26 29 31 30 29 29 30 30 33 35 37 40 45 47 47 48 49 49 49 49 50 49 49 51 53 54 55 56 56 56 54
15 14 10 13 6 4 6 9 16 20 21 23 26 28 31 30 29 29 29 31 33 36 39 42 46 46 46 47 48 49 49 49 51 52 51 52 53 53 54 56 56 58 59
31 23 16 17 13 10 9 8 12 21 22 24 26 27 28 30 31 30 30 35 36 38 40 41 43 45 47 49 49 50 51 51 52 53 52 54 52 52 51 52 51 51 54
41 36 24 18 17 13 10 6 7 16 22 23 25 26 28 29 31 31 33 36 38 39 40 42 43 46 48 50 51 51 53 54 53 50 51 52 50 50 49 47 48 51 53
45 37 29 24 21 17 12 9 10 13 21 21 22 25 28 29 29 29 32 36 38 40 42 44 46 48 51 53 54 54 57 54 51 48 48 49 51 49 48 50 51 53 52
60 55 35 24 24 20 16 10 10 14 18 20 23 25 26 25 26 29 33 37 40 42 45 46 48 50 53 55 56 54 55 48 46 45 46 47 50 49 51 52 54 55 55
72 63 34 27 24 20 17 12 11 16 18 22 23 23 24 25 26 28 32 38 41 43 46 49 50 53 58 60 58 52 52 43 46 45 47 47 50 51 53 55 57 58 60
59 45 33 28 23 20 17 15 18 20 19 20 21 22 22 24 26 29 34 39 41 45 49 53 57 58 62 62 59 54 52 38 43 44 48 49 52 52 55 58 61 62 64
50 41 31 26 21 18 16 16 16 17 19 22 20 19 21 24 27 29 33 37 42 47 53 55 58 57 61 64 60 56 52 35 40 44 49 51 53 55 57 61 66 66 68
42 35 26 25 17 14 16 14 14 17 21 21 19 19 20 23 25 28 34 39 44 50 55 57 56 57 56 64 56 58 49 37 40 47 53 52 55 61 62 65 70 70 71
36 27 22 19 16 13 15 14 14 16 19 19 18 18 18 20 24 29 34 40 46 52 54 56 54 58 60 66 59 63 50 47 48 49 57 54 58 67 65 71 74 74 73
36 26 22 18 18 17 15 17 12 10 18 16 14 15 17 20 25 30 36 43 47 50 54 56 58 56 57 63 64 58 62 58 51 58 61 58 71 72 77 81 81 81 76
39 29 24 17 19 18 12 8 7 9 12 15 12 13 17 21 26 32 37 43 47 50 54 54 56 58 61 61 62 62 65 65 79 57 65 62 75 73 80 80 81 77 78
34 31 22 18 18 17 14 10 9 8 7 14 9 10 16 22 28 33 39 44 48 50 53 54 55 57 58 64 59 62 58 61 77 86 65 83 69 87 81 81 80 82 85
27 28 24 20 17 15 14 11 9 7 7 4 5 9 16 23 30 35 41 45 48 50 52 55 57 59 59 60 64 66 65 67 65 76 98 89 89 81 82 78 87 85 86
25 25 20 17 18 16 13 11 10 9 7 5 4 10 18 25 32 38 42 46 49 52 54 56 57 59 61 62 64 65 69 74 78 81 91 101 102 93 93 87 85 89 90
Wind_Direction
29 81 86 85 77 72 66 61 54 47 41 38 42 58 68 65 55 42 13 4 357 343 341 337 336 343 360 2 3 349 339 335 332 331 331 331 339 341 345 347 351 343 336
79 90 78 76 77 71 66 59 52 46 40 36 46 60 65 55 40 35 24 4 360 351 348 345 345 345 345 349 348 344 339 332 334 333 335 336 340 342 341 341 351 340 330
82 94 70 60 70 72 66 59 50 42 42 44 49 54 59 36 42 28 23 10 2 357 350 349 348 346 342 341 342 341 337 334 332 330 334 338 337 336 333 332 340 336 323
76 85 74 70 78 72 67 58 49 44 42 45 52 52 42 38 33 47 53 42 17 3 354 354 352 346 343 340 339 339 337 337 337 336 335 336 333 330 331 332 332 335 325
71 76 74 70 71 71 63 55 51 46 46 49 52 56 66 73 66 62 55 63 53 25 7 2 0 355 350 347 346 345 345 343 340 340 340 338 335 333 330 330 331 326 318
68 72 72 71 68 74 68 57 48 43 43 48 47 44 48 60 53 44 27 34 28 24 18 10 4 356 352 346 343 342 344 345 347 345 342 340 337 335 332 329 325 324 322
33 50 57 74 71 75 67 55 46 40 37 39 51 63 51 23 1 27 75 23 20 13 8 3 357 353 351 347 342 340 338 338 341 342 340 340 338 334 332 330 328 325 328
40 31 33 69 73 74 64 51 41 32 32 25 40 59 51 357 339 348 51 43 32 20 7 360 353 350 346 344 343 340 339 337 337 337 336 335 334 333 331 328 326 324 320
342 358 26 45 63 66 59 42 32 27 26 25 26 32 32 2 341 347 37 40 44 37 20 9 1 359 359 357 354 351 346 343 340 338 336 335 334 332 330 328 327 324 322
313 325 349 18 53 50 42 28 26 27 11 21 18 10 2 354 349 356 15 26 28 22 14 10 5 2 358 351 346 343 342 338 339 336 334 332 328 327 326 323 321 321 320
299 300 305 329 46 58 47 5 10 6 354 3 5 359 350 349 350 359 9 16 13 13 8 359 348 345 346 346 346 345 346 345 343 342 339 334 330 328 326 324 322 318 315
298 296 294 301 318 354 353 353 333 336 346 348 348 355 351 350 352 358 9 9 9 7 0 355 351 350 351 351 350 348 349 349 347 343 340 335 332 330 328 326 324 322 319
290 295 292 294 298 300 314 335 338 325 336 337 339 342 353 349 354 359 3 358 360 358 359 0 360 357 352 348 348 347 347 347 346 343 341 338 336 334 333 333 332 334 334
286 290 291 290 292 289 293 310 333 327 325 334 335 336 343 349 350 354 356 358 359 2 2 360 358 353 349 348 347 346 345 344 344 346 344 342 342 341 342 343 342 338 336
288 291 287 282 281 284 279 290 306 322 323 334 335 335 337 343 347 356 357 358 360 1 357 353 352 350 347 345 344 344 342 343 345 345 346 345 344 344 345 342 340 339 339
283 285 285 273 272 276 276 273 288 309 323 331 333 332 339 346 350 351 354 355 355 355 350 350 349 349 348 345 344 345 344 349 351 350 349 347 345 344 343 342 339 337 336
277 283 282 273 265 261 268 269 282 299 315 323 334 339 342 345 348 353 354 352 353 352 348 347 348 348 344 342 342 346 346 352 352 352 349 347 344 343 341 339 336 334 331
285 287 284 279 261 253 258 274 290 299 310 322 332 338 346 349 350 351 351 350 353 349 344 344 344 342 341 342 342 344 344 349 349 352 349 346 344 342 340 338 335 333 330
285 285 285 280 264 249 258 280 293 301 305 315 328 339 346 349 350 353 353 355 352 350 345 344 344 345 344 342 342 343 343 351 348 347 344 344 343 341 338 336 334 332 330
285 286 284 279 265 247 259 277 296 301 304 312 323 337 345 354 0 1 358 355 351 348 345 346 347 349 350 344 347 344 344 347 343 340 339 340 338 338 336 333 332 331 329
281 280 278 271 255 238 249 260 281 294 297 306 323 339 353 1 5 4 2 354 351 350 351 350 351 349 349 346 347 342 343 341 334 335 336 334 334 334 334 332 330 328 326
270 274 275 266 252 253 253 267 279 293 296 306 328 346 358 5 5 1 359 355 353 354 353 353 352 352 351 350 345 343 338 338 342 334 333 333 328 329 328 328 327 325 324
264 269 268 259 254 252 236 253 287 309 296 297 317 339 349 1 1 359 358 357 355 356 354 354 354 352 347 347 348 345 337 333 329 335 331 332 328 328 326 326 326 325 323
261 267 267 258 249 239 228 220 213 241 249 279 301 339 351 355 358 357 357 356 356 356 354 353 352 351 348 344 346 346 343 337 331 326 331 325 329 324 325 325 325 323 320
254 260 264 260 243 222 219 209 225 229 272 262 305 332 344 351 355 354 354 354 354 354 353 351 348 347 347 345 343 341 340 337 335 328 323 326 325 327 326 325 323 322 320
246 253 255 247 235 207 202 215 207 188 174 178 291 321 334 342 348 349 351 352 352 350 349 347 347 345 344 344 342 341 338 334 331 329 325 324 323 325 324 323 323 322 320